User: anonymous   Login
Location: Oshawa
(43.9000°N, 78.8670°W)
Time: 05:58:28
(UTC-04:00)
Language:

Iridium 46 - Orbit

View from above orbital plane
View from above orbital plane
View from above satellite
View from above satellite

Ground track
Ground track

The orbit data is extracted from the following two-line orbital elements,

1 24905U 97043C   16182.03196631  .00000109  00000-0  31953-4 0  9995
2 24905  86.3960  43.1910 0002299  85.8887 274.2571 14.34217761987354
Epoch (UTC): 30 June 2016 00:46:01
Eccentricity: 0.0002299
inclination: 86.3960°
perigee height: 776 km
apogee height: 779 km
right ascension of ascending node: 43.1910°
argument of perigee: 85.8887°
revolutions per day: 14.34217761
mean anomaly at epoch: 274.2571°
orbit number at epoch: 98735

The dashed part of the orbit path shows where the satellite is in the earth's shadow,  

DLR